This is the latest recevied weather packets stored in our database for station/object IU3OVK-13. If no packets are shown the sender has not sent any weather packets the latest 10 day(s).
| Time | Temp. | Humidity | Pressure | Rain* | Wind** | Luminosity | Snow |
|---|---|---|---|---|---|---|---|
| 1777755996 | 13.33° C | 99% | 1015.5 hPa | - | - | - | - |
| 1777755375 | 13.89° C | 99% | 1015.6 hPa | - | - | - | - |
| 1777754755 | 15° C | 99% | 1015.1 hPa | - | - | - | - |
| 1777754135 | 15° C | 99% | 1015.1 hPa | - | - | - | - |
| 1777752896 | 15.56° C | 99% | 1015.6 hPa | - | - | - | - |
| 1777752275 | 16.11° C | 99% | 1014.9 hPa | - | - | - | - |
| 1777751654 | 16.11° C | 99% | 1015.4 hPa | - | - | - | - |
| 1777751034 | 16.67° C | 99% | 1015.3 hPa | - | - | - | - |
| 1777750414 | 16.67° C | 99% | 1015.1 hPa | - | - | - | - |
| 1777749794 | 17.22° C | 99% | 1015 hPa | - | - | - | - |
| 1777749174 | 17.22° C | 99% | 1014.5 hPa | - | - | - | - |
| 1777748554 | 17.22° C | 99% | 1014.7 hPa | - | - | - | - |
| 1777747934 | 17.78° C | 99% | 1014.6 hPa | - | - | - | - |
| 1777747313 | 18.33° C | 99% | 1014.6 hPa | - | - | - | - |
| 1777746693 | 18.89° C | 99% | 1014.4 hPa | - | - | - | - |
| 1777746073 | 18.89° C | 99% | 1014.2 hPa | - | - | - | - |
| 1777745453 | 19.44° C | 97% | 1013.9 hPa | - | - | - | - |
| 1777744833 | 20° C | 94% | 1013.8 hPa | - | - | - | - |
| 1777744213 | 20° C | 91% | 1013.8 hPa | - | - | - | - |
| 1777742352 | 21.11° C | 85% | 1013.4 hPa | - | - | - | - |
| 1777741112 | 21.67° C | 83% | 1013.2 hPa | - | - | - | - |
| 1777740491 | 21.67° C | 81% | 1013.2 hPa | - | - | - | - |
| 1777739251 | 22.22° C | 79% | 1013.2 hPa | - | - | - | - |
| 1777738011 | 22.78° C | 79% | 1013.4 hPa | - | - | - | - |
| 1777737391 | 22.22° C | 79% | 1013.5 hPa | - | - | - | - |
* Rain since midnight (hover to see other rain measurements)
** Current wind speed in m/s (hover to see current wind gust speed)